Inquirer Daily News

Weather

Get conditions and forecasts for any City, State, ZIP code or Country:  
Trenton, NJ
on Saturday, February 16, 2013

Saturday
Previous Day Next Day
Daily Summary
 ActualAverageRecord
Temperature
Mean Temperature °F 34°F  
Max Temperature 39°F 42°F 72°F (1954)
Min Temperature 30°F 26°F 1°F (1888)
Degree Days
Heating Degree Days 30 31  
Month to date heating degree days 532 514  
Since 1 July heating degree days 3240 3460  
Cooling Degree Days 0 0  
Month to date cooling degree days 0 0  
Year to date cooling degree days 0 0  
Moisture
Dew Point 26°F   
Average Humidity 70    
Maximum Humidity 92    
Minimum Humidity 47    
Precipitation
Precipitation 0.05 in 0.09 in 0.90 in (2003)
Month to date precipitation 0.95 1.24  
Year to date precipitation 3.77 4.40  
Wind
Wind Speed 9 mph   
Max Wind Speed 21 mph   
Max Gust Speed 29 mph   
Visibility 8 miles   
Events Rain , Snow   

Key: T is trace of precipitation, MM is missing value
Source: NWS Daily Summary
Time(EST)TemperatureDew PointHumidity Pressure Visibility Wind DirectionWind SpeedGust SpeedPrecipitationEvents Conditions
12:45 AM 35.6°F 33.8°F 93% 29.98 in 6.0 miles North 6.9 mph - 0.02 in Rain Light Rain
12:53 AM 36.0°F 33.1°F 89% 29.96 in 6.0 miles North 5.8 mph - 0.02 in Rain Light Rain
1:53 AM 35.1°F 33.1°F 92% 29.95 in 6.0 miles NNE 3.5 mph - 0.02 in Rain Light Rain
2:50 AM 35.6°F 33.8°F 93% 29.95 in 5.0 miles NNW 3.5 mph - 0.00 in Rain Light Rain
2:53 AM 35.1°F 33.1°F 92% 29.94 in 5.0 miles NNW 3.5 mph - 0.00 in Rain Light Rain
3:04 AM 35.6°F 33.8°F 93% 29.95 in 5.0 miles North 3.5 mph - 0.00 in Rain Light Rain
3:27 AM 33.8°F 32.0°F 93% 29.93 in 4.0 miles North 3.5 mph - 0.01 in   Overcast
3:36 AM 33.8°F 33.8°F 100% 29.93 in 5.0 miles Calm Calm - 0.01 in   Overcast
3:53 AM 34.0°F 33.1°F 96% 29.93 in 5.0 miles NW 4.6 mph - 0.01 in   Overcast
4:53 AM 35.1°F 33.1°F 92% 29.94 in 6.0 miles NNW 5.8 mph - N/A   Overcast
5:53 AM 35.1°F 32.0°F 89% 29.93 in 8.0 miles North 4.6 mph - N/A   Overcast
7:41 AM 33.8°F 30.2°F 87% 29.95 in 9.0 miles NNE 6.9 mph - 0.00 in Snow Light Snow
7:53 AM 34.0°F 28.9°F 82% 29.94 in 10.0 miles North 6.9 mph - 0.00 in   Overcast
8:24 AM 33.8°F 28.4°F 81% 29.96 in 10.0 miles NNE 8.1 mph - N/A   Overcast
8:53 AM 34.0°F 27.0°F 75% 29.94 in 10.0 miles North 9.2 mph - N/A   Overcast
9:53 AM 36.0°F 27.0°F 70% 29.93 in 10.0 miles North 10.4 mph - N/A   Mostly Cloudy
10:53 AM 37.0°F 25.0°F 62% 29.92 in 10.0 miles North 9.2 mph - N/A   Overcast
11:53 AM 37.0°F 21.9°F 54% 29.90 in 10.0 miles NE 9.2 mph - N/A   Mostly Cloudy
12:53 PM 37.0°F 24.1°F 59% 29.88 in 10.0 miles NNW 10.4 mph - N/A   Overcast
1:53 PM 37.9°F 24.1°F 57% 29.86 in 10.0 miles NNE 12.7 mph - N/A   Mostly Cloudy
2:53 PM 37.0°F 23.0°F 57% 29.85 in 10.0 miles North 10.4 mph - N/A   Mostly Cloudy
3:53 PM 36.0°F 21.9°F 57% 29.85 in 10.0 miles North 9.2 mph - N/A   Overcast
4:53 PM 35.1°F 21.0°F 57% 29.84 in 10.0 miles North 9.2 mph - N/A   Overcast
5:53 PM 34.0°F 19.9°F 56% 29.84 in 10.0 miles North 8.1 mph - N/A   Overcast
6:53 PM 33.1°F 18.0°F 54% 29.82 in 10.0 miles North 8.1 mph - N/A   Overcast
7:53 PM 33.1°F 17.1°F 52% 29.81 in 10.0 miles North 11.5 mph 19.6 mph N/A   Overcast
8:53 PM 32.0°F 15.1°F 50% 29.81 in 10.0 miles North 10.4 mph - N/A   Overcast
9:53 PM 32.0°F 16.0°F 52% 29.79 in 10.0 miles North 9.2 mph - N/A   Overcast
10:53 PM 30.9°F 12.0°F 46% 29.77 in 10.0 miles North 13.8 mph 28.8 mph N/A   Overcast
11:53 PM 30.0°F 10.0°F 43% 29.75 in 10.0 miles North 16.1 mph 23.0 mph N/A   Overcast
Astronomy
Sunrise:06:50 AM (EST) Moon Rise:10:01 AM (EST)2/16
Sunset:05:36 PM (EST) Moon Set:No Moon Set/
Moon Phase
Feb. 16 Feb. 17 Feb. 25 Mar. 04 Mar. 11

Copyright © 2014 The Weather Underground, Inc.